• In Portugal
  • List of Countries
  • For 7 days
  • Water Temperature
  • Satellite Maps
  • Weather Map
  • Weather Widgets
  • user-avatar
    Login

    Hourly Weather Dziecmorowice

    Today, 19 September, Wednesday

    Time Temperature Precipitation Wind Pressure Humidity
    00:00 +18°C° 0 mm 4 mps 725 mmHg 65%
    01:00 +17°C° 0 mm 3 mps 725 mmHg 64%
    02:00 +17°C° 0 mm 3 mps 725 mmHg 64%
    03:00 +17°C° 0 mm 3 mps 725 mmHg 64%
    04:00 +16°C° 0 mm 3 mps 725 mmHg 64%
    05:00 +17°C° 0 mm 3 mps 725 mmHg 65%
    06:00 +17°C° 0 mm 3 mps 725 mmHg 65%
    07:00 +17°C° 0 mm 3 mps 726 mmHg 64%
    08:00 +19°C° 0 mm 2 mps 726 mmHg 60%
    09:00 +21°C° 0 mm 2 mps 727 mmHg 56%
    10:00 +24°C° 0 mm 2 mps 727 mmHg 52%
    11:00 +25°C° 0 mm 2 mps 727 mmHg 50%
    12:00 +26°C° 0 mm 2 mps 727 mmHg 48%
    13:00 +27°C° 0 mm 2 mps 727 mmHg 46%
    14:00 +27°C° 0 mm 2 mps 727 mmHg 47%
    15:00 +27°C° 0 mm 2 mps 727 mmHg 47%
    16:00 +27°C° 0 mm 1 mps 727 mmHg 48%
    17:00 +25°C° 0 mm 1 mps 727 mmHg 55%
    18:00 +23°C° 0 mm 1 mps 727 mmHg 61%
    19:00 +21°C° 0 mm 1 mps 727 mmHg 67%
    20:00 +20°C° 0 mm 1 mps 727 mmHg 69%
    21:00 +20°C° 0 mm 1 mps 727 mmHg 72%
    22:00 +18°C° 0 mm 2 mps 727 mmHg 74%
    23:00 +18°C° 0 mm 2 mps 727 mmHg 75%

    Tomorrow, 20 September, Thursday

    Time Temperature Precipitation Wind Pressure Humidity
    00:00 +18°C° 0 mm 2 mps 727 mmHg 76%
    01:00 +17°C° 0 mm 2 mps 727 mmHg 77%
    02:00 +17°C° 0 mm 2 mps 727 mmHg 78%
    03:00 +17°C° 0 mm 2 mps 727 mmHg 79%
    04:00 +17°C° 0 mm 2 mps 727 mmHg 79%
    05:00 +17°C° 0 mm 2 mps 727 mmHg 78%
    06:00 +19°C° 0 mm 1 mps 727 mmHg 77%
    07:00 +19°C° 0 mm 1 mps 727 mmHg 75%
    08:00 +21°C° 0 mm 1 mps 727 mmHg 68%
    09:00 +23°C° 0 mm 1 mps 728 mmHg 61%
    10:00 +26°C° 0 mm 1 mps 728 mmHg 53%
    11:00 +26°C° 0 mm 1 mps 728 mmHg 50%
    12:00 +27°C° 0 mm 1 mps 727 mmHg 46%
    13:00 +28°C° 0 mm 1 mps 727 mmHg 43%
    14:00 +28°C° 0 mm 1 mps 727 mmHg 43%
    15:00 +28°C° 0 mm 1 mps 727 mmHg 43%
    16:00 +28°C° 0 mm 1 mps 726 mmHg 44%
    17:00 +26°C° 0 mm 1 mps 726 mmHg 49%
    18:00 +23°C° 0 mm 1 mps 726 mmHg 55%
    19:00 +21°C° 0 mm 1 mps 726 mmHg 60%
    20:00 +20°C° 0 mm 2 mps 726 mmHg 62%
    21:00 +19°C° 0 mm 2 mps 725 mmHg 64%
    22:00 +19°C° 0 mm 2 mps 725 mmHg 66%
    23:00 +18°C° 0 mm 2 mps 725 mmHg 69%

    Day after tomorrow, 21 September, Friday

    Time Temperature Precipitation Wind Pressure Humidity
    00:00 +18°C° 0 mm 2 mps 725 mmHg 71%
    01:00 +17°C° 0 mm 2 mps 724 mmHg 73%
    02:00 +17°C° 0 mm 2 mps 724 mmHg 75%
    03:00 +17°C° 0 mm 2 mps 724 mmHg 77%
    04:00 +17°C° 0 mm 3 mps 723 mmHg 79%
    05:00 +17°C° 0 mm 3 mps 723 mmHg 77%
    06:00 +17°C° 0 mm 3 mps 723 mmHg 75%
    07:00 +18°C° 0 mm 3 mps 723 mmHg 73%
    08:00 +20°C° 0 mm 4 mps 723 mmHg 65%
    09:00 +22°C° 0 mm 5 mps 723 mmHg 57%
    10:00 +24°C° 0 mm 6 mps 723 mmHg 49%
    11:00 +26°C° 0 mm 6 mps 722 mmHg 47%
    12:00 +26°C° 0 mm 6 mps 722 mmHg 44%
    13:00 +27°C° 0 mm 6 mps 722 mmHg 42%
    14:00 +27°C° 0 mm 6 mps 721 mmHg 44%
    15:00 +27°C° 0 mm 5 mps 721 mmHg 45%
    16:00 +27°C° 0 mm 5 mps 720 mmHg 47%
    17:00 +25°C° 0 mm 5 mps 720 mmHg 51%
    18:00 +23°C° 0 mm 4 mps 721 mmHg 54%
    19:00 +21°C° 0 mm 4 mps 721 mmHg 58%
    20:00 +20°C° 0.1 mm 4 mps 721 mmHg 64%
    21:00 +19°C° 0.1 mm 4 mps 722 mmHg 70%
    22:00 +18°C° 0.1 mm 4 mps 722 mmHg 76%
    23:00 +17°C° 0.2 mm 4 mps 723 mmHg 77%

    22 September, Saturday

    Time Temperature Precipitation Wind Pressure Humidity
    00:00 +15°C° 0.2 mm 4 mps 723 mmHg 79%
    01:00 +14°C° 0.2 mm 4 mps 724 mmHg 80%
    02:00 +13°C° 1.3 mm 3 mps 724 mmHg 82%
    03:00 +12°C° 1.3 mm 3 mps 724 mmHg 83%
    04:00 +12°C° 1.3 mm 2 mps 725 mmHg 85%
    05:00 +11°C° 0.4 mm 3 mps 725 mmHg 84%
    06:00 +11°C° 0.4 mm 3 mps 726 mmHg 84%
    07:00 +10°C° 0.4 mm 3 mps 726 mmHg 84%
    08:00 +11°C° 0.4 mm 3 mps 726 mmHg 80%
    09:00 +11°C° 0.4 mm 4 mps 726 mmHg 76%
    10:00 +11°C° 0.4 mm 4 mps 726 mmHg 72%
    11:00 +12°C° 0.1 mm 5 mps 726 mmHg 66%
    12:00 +13°C° 0.1 mm 5 mps 726 mmHg 59%
    13:00 +14°C° 0.1 mm 5 mps 726 mmHg 53%
    14:00 +14°C° 0.1 mm 5 mps 726 mmHg 51%
    15:00 +14°C° 0.1 mm 5 mps 725 mmHg 50%
    16:00 +14°C° 0.1 mm 5 mps 725 mmHg 48%
    17:00 +13°C° 0 mm 4 mps 725 mmHg 53%
    18:00 +11°C° 0 mm 3 mps 725 mmHg 57%
    19:00 +10°C° 0 mm 2 mps 725 mmHg 62%
    20:00 +9°C° 0 mm 2 mps 726 mmHg 63%
    21:00 +9°C° 0 mm 2 mps 726 mmHg 64%
    22:00 +8°C° 0 mm 2 mps 726 mmHg 65%
    23:00 +8°C° 0 mm 2 mps 727 mmHg 67%

    23 September, Sunday

    Time Temperature Precipitation Wind Pressure Humidity
    00:00 +8°C° 0 mm 2 mps 727 mmHg 68%
    01:00 +7°C° 0 mm 2 mps 727 mmHg 69%
    02:00 +7°C° 0 mm 2 mps 727 mmHg 71%
    03:00 +7°C° 0 mm 2 mps 727 mmHg 73%
    04:00 +6°C° 0 mm 2 mps 726 mmHg 75%
    05:00 +7°C° 0 mm 2 mps 726 mmHg 74%
    06:00 +7°C° 0 mm 2 mps 726 mmHg 73%
    07:00 +8°C° 0 mm 2 mps 726 mmHg 73%
    08:00 +10°C° 0 mm 2 mps 726 mmHg 65%
    09:00 +12°C° 0 mm 3 mps 726 mmHg 57%
    10:00 +14°C° 0 mm 3 mps 726 mmHg 49%
    11:00 +14°C° 0 mm 4 mps 725 mmHg 47%
    12:00 +15°C° 0 mm 5 mps 724 mmHg 45%
    13:00 +16°C° 0 mm 5 mps 723 mmHg 42%
    14:00 +16°C° 0 mm 6 mps 721 mmHg 45%
    15:00 +16°C° 0 mm 6 mps 720 mmHg 48%
    16:00 +16°C° 0 mm 6 mps 719 mmHg 51%
    17:00 +15°C° 0 mm 6 mps 718 mmHg 54%
    18:00 +15°C° 0 mm 7 mps 717 mmHg 56%
    19:00 +14°C° 0 mm 7 mps 716 mmHg 59%
    20:00 +14°C° 0.1 mm 7 mps 715 mmHg 59%
    21:00 +14°C° 0.1 mm 7 mps 713 mmHg 60%
    22:00 +15°C° 0.1 mm 7 mps 712 mmHg 61%
    23:00 +14°C° 0.4 mm 7 mps 713 mmHg 65%

    24 September, Monday

    Time Temperature Precipitation Wind Pressure Humidity
    00:00 +14°C° 0.4 mm 7 mps 713 mmHg 69%
    01:00 +14°C° 0.4 mm 6 mps 713 mmHg 74%
    02:00 +13°C° 0.2 mm 6 mps 713 mmHg 75%
    03:00 +13°C° 0.2 mm 6 mps 713 mmHg 77%
    04:00 +11°C° 0.2 mm 6 mps 713 mmHg 78%
    05:00 +10°C° 0.2 mm 6 mps 713 mmHg 78%
    06:00 +10°C° 0.2 mm 6 mps 713 mmHg 78%
    07:00 +9°C° 0.2 mm 6 mps 712 mmHg 77%
    08:00 +9°C° 0.5 mm 6 mps 712 mmHg 77%
    09:00 +9°C° 0.5 mm 7 mps 712 mmHg 77%
    10:00 +9°C° 0.5 mm 8 mps 712 mmHg 76%
    11:00 +10°C° 0 mm 8 mps 712 mmHg 73%
    12:00 +11°C° 0 mm 8 mps 712 mmHg 70%
    13:00 +12°C° 0 mm 8 mps 712 mmHg 66%
    14:00 +11°C° 0.1 mm 8 mps 713 mmHg 69%
    15:00 +11°C° 0.1 mm 8 mps 713 mmHg 72%
    16:00 +10°C° 0.1 mm 8 mps 714 mmHg 75%
    17:00 +9°C° 0.1 mm 8 mps 715 mmHg 75%
    18:00 +7°C° 0.1 mm 8 mps 716 mmHg 74%
    19:00 +8°C° 0.1 mm 7 mps 717 mmHg 74%
    20:00 +6°C° 0 mm 7 mps 718 mmHg 73%
    21:00 +6°C° 0 mm 7 mps 719 mmHg 72%
    22:00 +6°C° 0 mm 7 mps 720 mmHg 72%
    23:00 +6°C° 0 mm 8 mps 720 mmHg 72%
    Show more